TimeMST,TemperatureF,Dew PointF,Humidity,Sea Level PressureIn,VisibilityMPH,Wind Direction,Wind SpeedMPH,Gust SpeedMPH,PrecipitationIn,Events,Conditions,WindDirDegrees,DateUTC
12:23 AM,8.6,3.2,79,30.03,5.0,NNE,6.9,-,N/A,,Haze,30,2014-02-04 07:23:00
12:31 AM,8.6,3.2,79,30.02,4.0,NNE,5.8,-,N/A,,Haze,30,2014-02-04 07:31:00
12:41 AM,8.6,3.2,79,30.02,4.0,NNE,5.8,-,0.00,Snow,Light Snow,30,2014-02-04 07:41:00
12:53 AM,8.1,3.0,80,30.22,2.5,NNE,6.9,-,0.00,Snow,Light Snow,30,2014-02-04 07:53:00
1:06 AM,8.6,3.2,79,30.03,2.0,North,5.8,-,0.00,Snow,Light Snow,10,2014-02-04 08:06:00
1:09 AM,6.8,3.2,85,30.03,1.5,North,5.8,-,0.00,Snow,Light Snow,10,2014-02-04 08:09:00
1:28 AM,6.8,3.2,85,30.03,0.8,North,8.1,-,0.01,Snow,Light Snow,360,2014-02-04 08:28:00
1:43 AM,6.8,3.2,85,30.04,1.2,North,9.2,-,0.01,Snow,Light Snow,350,2014-02-04 08:43:00
1:53 AM,7.0,3.0,84,30.25,1.2,North,9.2,-,0.02,Snow,Light Snow,360,2014-02-04 08:53:00
2:17 AM,6.8,3.2,85,30.05,1.5,North,9.2,-,0.00,Snow,Light Snow,350,2014-02-04 09:17:00
2:53 AM,6.1,1.9,83,30.25,1.8,NNW,10.4,-,0.01,Snow,Light Snow,340,2014-02-04 09:53:00
3:02 AM,6.8,1.4,79,30.05,2.0,North,12.7,-,0.00,,Overcast,350,2014-02-04 10:02:00
3:10 AM,5.0,1.4,85,30.05,2.5,North,12.7,-,0.00,,Overcast,350,2014-02-04 10:10:00
3:32 AM,3.2,-0.4,85,30.05,2.0,North,15.0,-,0.00,,Overcast,350,2014-02-04 10:32:00
3:39 AM,3.2,-0.4,85,30.05,1.5,North,15.0,-,0.00,Snow,Light Snow,350,2014-02-04 10:39:00
3:53 AM,3.9,-0.0,84,30.29,1.2,North,13.8,-,0.01,Snow,Light Snow,350,2014-02-04 10:53:00
4:31 AM,3.2,-0.4,85,30.07,2.5,North,13.8,-,0.00,,Overcast,360,2014-02-04 11:31:00
4:37 AM,3.2,-2.2,78,30.08,3.0,North,16.1,-,0.00,,Haze,360,2014-02-04 11:37:00
4:50 AM,3.2,-2.2,78,30.08,2.5,North,13.8,-,0.00,,Haze,350,2014-02-04 11:50:00
4:53 AM,3.0,-2.0,80,30.31,2.5,North,12.7,-,0.00,,Haze,350,2014-02-04 11:53:00
5:04 AM,1.4,-2.2,85,30.08,1.8,North,15.0,-,0.01,,Overcast,360,2014-02-04 12:04:00
5:53 AM,-0.0,-4.0,83,30.34,1.5,North,15.0,-,0.02,,Overcast,350,2014-02-04 12:53:00
6:14 AM,-0.4,-5.8,78,30.11,2.0,North,16.1,-,N/A,,Haze,360,2014-02-04 13:14:00
6:28 AM,-0.4,-5.8,78,30.11,1.8,North,16.1,-,N/A,,Haze,360,2014-02-04 13:28:00
6:53 AM,-0.9,-6.0,79,30.38,1.8,North,15.0,-,N/A,,Haze,360,2014-02-04 13:53:00
7:00 AM,-0.4,-5.8,78,30.14,2.0,North,16.1,-,N/A,,Haze,360,2014-02-04 14:00:00
7:11 AM,-0.4,-5.8,78,30.14,2.0,North,15.0,-,0.01,,Haze,10,2014-02-04 14:11:00
7:39 AM,-0.4,-5.8,78,30.15,1.5,North,15.0,-,0.02,,Haze,360,2014-02-04 14:39:00
7:53 AM,-0.9,-7.1,75,30.42,1.8,North,13.8,-,0.02,,Haze,10,2014-02-04 14:53:00
8:12 AM,-0.4,-7.6,72,30.16,1.5,North,16.1,-,N/A,,Haze,360,2014-02-04 15:12:00
8:25 AM,-0.4,-7.6,72,30.17,2.0,North,16.1,-,N/A,,Haze,360,2014-02-04 15:25:00
8:37 AM,-0.4,-7.6,72,30.18,1.5,North,15.0,-,0.01,,Haze,360,2014-02-04 15:37:00
8:53 AM,-0.9,-7.1,75,30.44,1.2,North,13.8,-,0.01,,Haze,360,2014-02-04 15:53:00
9:29 AM,-2.2,-7.6,78,30.19,0.8,NNE,15.0,-,N/A,,Haze,20,2014-02-04 16:29:00
9:38 AM,-0.4,-7.6,72,30.19,0.5,North,13.8,-,0.00,Snow,Snow,10,2014-02-04 16:38:00
9:45 AM,-0.4,-7.6,72,30.20,0.8,North,16.1,-,0.00,Snow,Light Snow,10,2014-02-04 16:45:00
9:53 AM,-0.9,-8.0,72,30.46,2.0,North,13.8,-,0.00,,Haze,10,2014-02-04 16:53:00
10:12 AM,-0.4,-7.6,72,30.20,2.5,North,17.3,-,0.02,,Haze,360,2014-02-04 17:12:00
10:30 AM,-0.4,-7.6,72,30.21,1.0,North,16.1,-,0.02,,Haze,360,2014-02-04 17:30:00
10:44 AM,-0.4,-7.6,72,30.21,3.0,North,15.0,-,0.02,,Haze,360,2014-02-04 17:44:00
10:51 AM,-0.4,-7.6,72,30.22,2.0,North,16.1,-,0.02,,Haze,360,2014-02-04 17:51:00
10:53 AM,-0.9,-8.0,72,30.47,2.0,North,15.0,-,0.02,,Haze,360,2014-02-04 17:53:00
11:19 AM,-0.4,-7.6,72,30.21,1.8,North,11.5,-,N/A,,Haze,360,2014-02-04 18:19:00
11:39 AM,-0.4,-7.6,72,30.21,2.5,North,17.3,-,N/A,,Haze,360,2014-02-04 18:39:00
11:53 AM,-0.9,-8.0,72,30.47,2.5,North,16.1,-,N/A,,Haze,360,2014-02-04 18:53:00
12:01 PM,-0.4,-7.6,72,30.21,1.8,North,17.3,-,N/A,,Haze,360,2014-02-04 19:01:00
12:15 PM,-0.4,-7.6,72,30.20,1.5,North,17.3,-,N/A,,Haze,360,2014-02-04 19:15:00
12:29 PM,-0.4,-7.6,72,30.21,2.0,North,15.0,-,N/A,,Haze,360,2014-02-04 19:29:00
12:53 PM,-0.0,-7.1,72,30.46,2.0,North,16.1,-,N/A,,Haze,360,2014-02-04 19:53:00
1:02 PM,-0.4,-7.6,72,30.21,1.5,North,16.1,-,N/A,,Haze,360,2014-02-04 20:02:00
1:22 PM,-0.4,-7.6,72,30.20,2.5,North,17.3,-,N/A,,Haze,350,2014-02-04 20:22:00
1:45 PM,1.4,-7.6,66,30.22,1.8,North,15.0,-,0.01,,Haze,360,2014-02-04 20:45:00
1:53 PM,-0.0,-7.1,72,30.47,1.5,North,13.8,-,0.01,,Haze,360,2014-02-04 20:53:00
2:53 PM,-0.0,-6.0,76,30.51,1.5,North,12.7,-,0.00,,Haze,10,2014-02-04 21:53:00
3:19 PM,-0.4,-7.6,72,30.25,2.0,NNE,12.7,-,N/A,,Haze,20,2014-02-04 22:19:00
3:27 PM,-0.4,-7.6,72,30.25,1.8,North,15.0,-,0.01,,Haze,10,2014-02-04 22:27:00
3:41 PM,-0.4,-7.6,72,30.26,2.5,North,12.7,-,0.01,,Haze,360,2014-02-04 22:41:00
3:50 PM,-0.4,-7.6,72,30.26,3.0,North,12.7,-,0.01,,Haze,10,2014-02-04 22:50:00
3:53 PM,-0.0,-7.1,72,30.54,4.0,North,13.8,-,0.01,,Haze,10,2014-02-04 22:53:00
4:25 PM,-0.4,-7.6,72,30.27,2.5,North,12.7,-,N/A,,Haze,10,2014-02-04 23:25:00
4:35 PM,-0.4,-9.4,66,30.27,4.0,NNE,12.7,-,N/A,,Haze,20,2014-02-04 23:35:00
4:53 PM,-2.0,-9.0,72,30.56,3.0,North,10.4,-,0.01,,Haze,360,2014-02-04 23:53:00
5:00 PM,-2.2,-9.4,71,30.28,2.5,NNE,12.7,-,N/A,,Haze,20,2014-02-05 00:00:00
5:08 PM,-2.2,-9.4,71,30.29,4.0,North,11.5,-,N/A,,Haze,10,2014-02-05 00:08:00
5:53 PM,-2.9,-9.0,75,30.61,4.0,North,13.8,-,N/A,,Haze,360,2014-02-05 00:53:00
6:53 PM,-2.9,-9.0,75,30.62,4.0,North,12.7,-,N/A,,Haze,10,2014-02-05 01:53:00
7:53 PM,-4.0,-9.0,79,30.64,5.0,North,10.4,-,0.01,,Haze,10,2014-02-05 02:53:00
8:10 PM,-4.0,-9.4,78,30.34,2.5,North,8.1,-,N/A,,Haze,10,2014-02-05 03:10:00
8:18 PM,-4.0,-9.4,78,30.34,4.0,North,10.4,-,N/A,,Haze,360,2014-02-05 03:18:00
8:53 PM,-4.0,-9.0,79,30.66,8.0,North,8.1,-,N/A,,Overcast,10,2014-02-05 03:53:00
9:53 PM,-5.1,-9.9,80,30.67,4.0,NNE,10.4,-,N/A,,Haze,20,2014-02-05 04:53:00
10:40 PM,-5.8,-11.2,77,30.37,4.0,NNE,10.4,-,0.01,,Haze,20,2014-02-05 05:40:00
10:53 PM,-7.1,-11.9,79,30.70,6.0,North,9.2,-,0.01,,Haze,10,2014-02-05 05:53:00
11:36 PM,-7.6,-13.0,77,30.39,9.0,North,8.1,-,N/A,,Overcast,10,2014-02-05 06:36:00
11:53 PM,-9.0,-14.1,79,30.71,10.0,North,9.2,-,N/A,,Overcast,360,2014-02-05 06:53:00